Location: Lixville
(37.5770°N, 89.9118°W)
Time: 02:30:52
(UTC+00:00)

Explorer 7 - Visible Passes

Search period start: 11 December 2025 00:00
Search period end: 21 December 2025 00:00
Orbit: 436 x 554 km, 50.3° (Epoch: 10 December)

Date Brightness Start Highest point End Pass type
(mag) Time Alt. Az. Time Alt. Az. Time Alt. Az.
11 Dec 7.3 00:26:20 10° WSW 00:29:40 38° NNW 00:30:01 37° NNW visible
12 Dec 7.4 00:02:53 10° WSW 00:06:14 38° NNW 00:07:43 25° NNE visible
12 Dec 7.4 23:39:25 10° WSW 23:42:47 38° NNW 23:45:21 15° NNE visible
13 Dec 7.4 23:15:54 10° WSW 23:19:17 39° NNW 23:22:36 10° NE visible
14 Dec 9.3 00:56:59 10° NW 00:57:23 11° NNW 00:57:23 11° NNW visible
15 Dec 8.9 00:33:25 10° NW 00:34:52 13° NNW 00:34:52 13° NNW visible
16 Dec 8.8 00:09:49 10° NW 00:11:29 13° NNW 00:12:18 12° N visible
16 Dec 8.8 23:46:11 10° NW 23:47:52 13° NNW 23:49:32 10° NNE visible
17 Dec 8.8 23:22:30 10° NW 23:24:14 13° NNW 23:25:56 10° NNE visible
20 Dec 8.9 00:15:26 10° NNW 00:16:10 11° N 00:16:10 11° N visible
20 Dec 8.7 23:51:40 10° NNW 23:52:53 11° N 23:53:29 11° NNE visible
